Mount Pleasant, IA

6:31 AM CST on December 11, 2016 (GMT -0600)
Mount Pleasant Municipal

Weather History for KMPZ - February, 2014

Change the Weather History Date:

Thursday, February 20, 2014

  Actual Average Record
Temperature  
Mean Temperature 38 °F -  
Max Temperature 43 °F 40 °F 66 °F (1983)
Min Temperature 34 °F 22 °F -9 °F (1958)
Degree Days  
Heating Degree Days 26    
Moisture  
Dew Point 34 °F    
Average Humidity 90    
Maximum Humidity 99    
Minimum Humidity 68    
Precipitation  
Precipitation 0.56 in - - ()
Sea Level Pressure  
Sea Level Pressure 29.49 in    
Wind  
Wind Speed 13 mph (ESE)    
Max Wind Speed 34 mph    
Max Gust Speed 44 mph    
Visibility 5 miles    
Events Fog , Rain    
Averages and records for this station are not official NWS values.
T = Trace of Precipitation, MM = Missing Value Source: NWS Daily Summary

Daily Weather History Graph

Daily Weather History Graph

Search for Another Location

Airport or City:

Trip Planner

Search our weather history database for the weather conditions in past years. The results will help you decide how hot, cold, wet, or windy it might be!

Date:

Astronomy

Feb. 20, 2014 Rise Set
Actual Time 6:53 AM CST 5:46 PM CST
Civil Twilight 6:25 AM CST 6:14 PM CST
Nautical Twilight 5:53 AM CST 6:46 PM CST
Astronomical Twilight 5:21 AM CST 7:18 PM CST
Moon 11:44 PM CST (2/20) 9:33 AM CST (2/20)
Length of Visible Light 11h 49m
Length of Day
10h 53m
Waning Gibbous, 70% of the Moon is Illuminated
Feb 20
Waning Gibbous
Feb 22
Last Quarter
Mar 1
New
Mar 8
First Quarter
Mar 16
Full

Hourly Weather History & Observations

Time (CST) Temp. Windchill Dew Point Humidity Pressure Visibility Wind Dir Wind Speed Gust Speed Precip Events Conditions
12:15 AM 35.8 °F 29.4 °F 33.8 °F 92% 29.75 in 4.0 mi ESE 8.1 mph - 0.01 in Rain Rain
12:35 AM 36.0 °F 28.5 °F 34.3 °F 94% 29.73 in 2.5 mi East 10.4 mph - 0.05 in Rain Rain
12:55 AM 35.8 °F 28.3 °F 34.3 °F 94% 29.71 in 5.0 mi East 10.4 mph - 0.06 in Rain Light Rain
1:15 AM 35.8 °F 30.1 °F 34.7 °F 96% 29.71 in 3.0 mi East 6.9 mph - 0.03 in Rain Rain
1:35 AM 35.6 °F 30.7 °F 34.7 °F 97% 29.72 in 2.0 mi ESE 5.8 mph - 0.06 in Rain Rain
1:55 AM 35.6 °F 29.2 °F 34.7 °F 97% 29.70 in 1.5 mi East 8.1 mph - 0.13 in   Overcast
2:15 AM 35.6 °F 28.6 °F 34.7 °F 97% 29.67 in 1.8 mi East 9.2 mph - 0.06 in Rain Rain
2:35 AM 35.6 °F 29.2 °F 34.7 °F 97% 29.65 in 1.8 mi East 8.1 mph - 0.12 in Rain Rain
2:55 AM 36.1 °F 28.7 °F 35.6 °F 98% 29.63 in 2.0 mi East 10.4 mph - 0.18 in Rain Rain
3:15 AM 36.7 °F 28.9 °F 36.0 °F 97% 29.62 in 4.0 mi ESE 11.5 mph - 0.01 in Rain Light Rain
3:35 AM 36.5 °F 29.2 °F 35.6 °F 97% 29.60 in 5.0 mi East 10.4 mph - 0.02 in Rain Light Rain
3:55 AM 36.5 °F 28.7 °F 35.6 °F 97% 29.59 in 4.0 mi East 11.5 mph - 0.02 in Rain Light Rain
4:15 AM 37.0 °F 29.8 °F 36.5 °F 98% 29.59 in 5.0 mi East 10.4 mph - N/A Rain Light Rain
4:35 AM 37.0 °F 31.6 °F 36.5 °F 98% 29.59 in 2.5 mi East 6.9 mph - 0.05 in Rain Heavy Rain
4:55 AM 37.0 °F 29.3 °F 36.5 °F 98% 29.58 in 7.0 mi ESE 11.5 mph - 0.05 in Rain Light Rain
5:15 AM 36.5 °F 31.8 °F 35.6 °F 97% 29.58 in 5.0 mi NE 5.8 mph - 0.01 in Rain Rain
5:35 AM 36.0 °F 30.3 °F 35.1 °F 97% 29.57 in 5.0 mi NE 6.9 mph - 0.01 in   Overcast
5:55 AM 35.8 °F 31.9 °F 34.9 °F 97% 29.56 in 3.0 mi NE 4.6 mph - 0.01 in   Heavy Drizzle
6:15 AM 35.6 °F 29.2 °F 34.7 °F 97% 29.55 in 2.5 mi NE 8.1 mph - N/A Rain Light Rain
6:35 AM 35.2 °F 28.1 °F 34.7 °F 98% 29.53 in 2.0 mi NE 9.2 mph - N/A   Overcast
6:55 AM 35.1 °F 27.4 °F 34.5 °F 98% 29.51 in 1.8 mi East 10.4 mph - N/A   Overcast
7:15 AM 35.4 °F 27.8 °F 34.7 °F 97% 29.51 in 2.0 mi East 10.4 mph - N/A   Overcast
7:35 AM 35.6 °F 27.5 °F 35.1 °F 98% 29.51 in 2.0 mi East 11.5 mph - N/A   Overcast
7:55 AM 35.6 °F 29.9 °F 35.1 °F 98% 29.51 in 2.0 mi ENE 6.9 mph - N/A   Overcast
8:15 AM 35.6 °F 28.6 °F 35.1 °F 98% 29.49 in 2.0 mi NE 9.2 mph - N/A   Light Drizzle
8:55 AM 36.1 °F 28.7 °F 35.6 °F 98% 29.49 in 1.8 mi East 10.4 mph - 0.07 in Rain Rain
9:15 AM 36.0 °F 29.6 °F 35.4 °F 98% 29.48 in 1.5 mi East 8.1 mph - 0.03 in Rain Rain
9:35 AM 36.1 °F 27.7 °F 35.6 °F 98% 29.45 in 2.5 mi East 12.7 mph - 0.03 in Rain Rain
9:55 AM 36.0 °F 28.0 °F 35.2 °F 97% 29.45 in 2.0 mi East 11.5 mph - 0.03 in   Drizzle
10:15 AM 36.1 °F 27.7 °F 35.6 °F 98% 29.43 in 2.0 mi East 12.7 mph - N/A   Drizzle
10:35 AM 36.7 °F 28.0 °F 36.0 °F 97% 29.40 in 2.0 mi East 13.8 mph - N/A   Light Drizzle
10:55 AM 36.9 °F 28.7 °F 36.3 °F 98% 29.37 in 2.0 mi East 12.7 mph - N/A   Overcast
11:55 AM 37.4 °F 28.5 °F 36.7 °F 97% 29.29 in 1.2 mi ESE 15.0 mph - N/A Rain Light Rain
12:15 PM 37.4 °F 28.2 °F 36.7 °F 97% 29.27 in 0.8 mi ESE 16.1 mph - 0.01 in   Overcast
12:35 PM 37.8 °F 29.8 °F 37.4 °F 99% 29.25 in 0.5 mi ESE 12.7 mph - 0.01 in Fog Fog
1:33 PM 41.0 °F 32.5 °F 39.2 °F 93% 29.15 in 0.2 mi ESE 17.3 mph - N/A Fog Fog
1:35 PM 40.6 °F 31.7 °F 40.3 °F 99% 29.15 in 0.2 mi ESE 18.4 mph 23.0 mph N/A Fog Fog
2:15 PM 40.6 °F 32.3 °F 40.3 °F 99% 29.12 in 0.2 mi SE 16.1 mph 23.0 mph N/A Rain Rain
2:35 PM 43.5 °F 38.9 °F 43.2 °F 99% 29.17 in 7.0 mi South 8.1 mph - N/A   Overcast
5:15 PM 36.0 °F 23.7 °F 33.4 °F 91% 29.32 in 10.0 mi WSW 26.5 mph 34.5 mph N/A   Overcast
5:35 PM 36.1 °F 23.9 °F 32.9 °F 88% 29.34 in 10.0 mi WSW 26.5 mph 40.3 mph N/A   Overcast
5:55 PM 36.5 °F 23.7 °F 32.0 °F 84% 29.38 in 10.0 mi WSW 29.9 mph 39.1 mph N/A   Overcast
6:15 PM 36.7 °F 23.2 °F 32.0 °F 83% 29.39 in 10.0 mi West 34.5 mph 42.6 mph N/A   Overcast
6:35 PM 37.4 °F 24.6 °F 31.3 °F 79% 29.42 in 10.0 mi West 32.2 mph 43.7 mph N/A   Overcast
6:55 PM 37.4 °F 25.2 °F 30.7 °F 77% 29.45 in 10.0 mi WSW 28.8 mph 40.3 mph N/A   Overcast
7:15 PM 37.6 °F 26.1 °F 30.2 °F 75% 29.46 in 10.0 mi West 25.3 mph 39.1 mph N/A   Overcast
7:35 PM 37.6 °F 26.1 °F 29.8 °F 74% 29.48 in 10.0 mi West 25.3 mph 39.1 mph N/A   Overcast
7:55 PM 37.4 °F 25.6 °F 29.7 °F 74% 29.49 in 10.0 mi West 26.5 mph 35.7 mph N/A   Mostly Cloudy
8:15 PM 37.2 °F 26.1 °F 29.3 °F 73% 29.50 in 10.0 mi WSW 23.0 mph 35.7 mph N/A   Mostly Cloudy
8:35 PM 37.2 °F 26.1 °F 29.5 °F 74% 29.50 in 10.0 mi WSW 23.0 mph 33.4 mph N/A   Mostly Cloudy
8:55 PM 36.5 °F 25.4 °F 30.0 °F 77% 29.50 in 10.0 mi WSW 21.9 mph 31.1 mph N/A   Scattered Clouds
9:15 PM 36.9 °F 25.4 °F 29.8 °F 76% 29.52 in 10.0 mi WSW 24.2 mph 31.1 mph N/A   Mostly Cloudy
9:30 PM 37.0 °F 26.7 °F 29.3 °F 74% 29.53 in 10.0 mi WSW 19.6 mph 31.1 mph N/A   Overcast
9:55 PM 36.9 °F 26.5 °F 28.8 °F 72% 29.53 in 10.0 mi WSW 19.6 mph 32.2 mph N/A   Overcast
10:15 PM 36.5 °F 26.0 °F 28.2 °F 72% 29.53 in 10.0 mi West 19.6 mph 34.5 mph N/A   Overcast
10:35 PM 35.8 °F 24.5 °F 27.5 °F 72% 29.55 in 10.0 mi WSW 21.9 mph 31.1 mph N/A   Overcast
10:55 PM 35.6 °F 23.2 °F 26.2 °F 69% 29.54 in 10.0 mi West 26.5 mph 36.8 mph N/A   Overcast
11:15 PM 35.2 °F 24.7 °F 25.7 °F 68% 29.53 in 10.0 mi West 18.4 mph 34.5 mph N/A   Overcast
11:35 PM 34.9 °F 22.7 °F 26.2 °F 71% 29.53 in 10.0 mi West 24.2 mph 28.8 mph N/A   Overcast
11:55 PM 34.3 °F 22.9 °F 24.8 °F 68% 29.53 in 10.0 mi West 20.7 mph 31.1 mph N/A   Overcast